ECMWFNIL_925_spd_132.txt.gz
Wind_Speed
16 19 20 20 20 21 23 23 23 23 21 19 17 14 12 10 7 5 6 7 7 8 9 9 8 8 9 9 9 11 13 15 16 15 14 15 14 14 14 13 13 13
19 20 20 20 22 22 23 23 23 22 20 18 16 14 12 10 8 8 8 9 10 11 11 10 9 9 10 10 11 14 16 17 17 15 15 16 15 14 15 13 13 12
20 21 21 21 23 24 24 24 23 21 20 17 15 13 12 10 10 9 10 10 11 11 10 10 11 12 13 14 15 17 18 17 17 15 15 16 14 14 15 13 13 13
21 22 21 22 23 25 25 25 23 21 19 17 15 13 12 11 10 10 11 10 11 11 11 11 13 14 14 15 16 18 18 17 16 14 15 16 15 15 15 14 14 15
22 23 22 23 24 26 26 24 23 21 19 17 16 13 12 11 11 11 12 11 11 11 12 13 14 13 13 14 16 17 17 16 14 13 14 16 15 15 15 15 16 17
22 23 24 25 26 26 26 24 23 21 19 18 16 14 13 12 12 12 12 12 12 13 14 14 14 13 13 14 15 16 15 14 13 12 14 16 15 16 16 16 17 18
23 24 26 27 27 27 26 24 23 21 20 18 16 14 13 13 13 13 13 13 13 14 14 13 12 13 13 13 15 15 14 13 12 13 15 16 16 17 18 17 18 19
26 26 27 27 28 26 25 24 23 21 19 17 16 15 14 14 15 15 14 14 14 13 12 12 12 13 13 13 14 14 14 13 12 13 15 16 18 19 19 19 20 20
29 29 28 28 27 25 24 24 22 20 18 17 17 17 16 16 15 16 15 14 14 13 12 12 13 14 14 13 13 13 14 14 13 14 16 18 20 21 21 21 22 23
31 31 30 28 26 25 24 23 21 20 18 17 18 18 18 17 16 16 15 15 15 15 15 15 15 15 13 13 12 13 14 15 15 17 19 20 21 21 22 23 24 24
32 32 30 27 26 24 24 22 21 20 18 18 19 19 18 17 16 16 16 16 17 17 18 17 15 13 13 13 13 14 15 17 18 20 21 21 21 21 22 22 23 23
32 31 29 27 25 24 23 21 20 19 19 18 18 18 17 16 17 18 18 18 19 19 18 17 14 12 13 15 16 17 19 20 21 22 21 21 21 20 20 20 21 20
31 30 28 27 25 24 23 21 20 19 19 18 17 16 16 17 19 21 20 20 21 20 18 15 14 14 16 19 20 21 22 22 22 22 21 21 20 19 18 18 18 18
30 29 28 27 25 24 23 22 21 20 19 18 16 15 17 20 22 23 23 22 21 19 17 15 15 18 21 23 24 23 23 22 21 21 20 19 19 18 17 17 16 16
30 29 28 27 26 25 24 23 22 21 19 18 17 18 21 23 24 24 24 24 21 19 17 16 19 22 24 25 25 24 23 22 21 20 19 18 18 17 17 17 16 16
30 29 28 27 27 27 26 25 23 22 20 19 20 22 24 25 25 25 25 24 21 19 18 20 23 25 25 25 24 23 22 22 21 20 19 18 17 17 16 16 16 16
30 29 29 29 29 28 26 25 24 22 22 22 23 24 26 26 27 27 25 23 21 20 21 24 26 26 25 24 23 22 21 21 20 19 18 18 17 16 15 14 14 14
29 29 30 29 29 28 27 25 23 23 24 24 25 25 27 27 28 27 25 22 21 23 25 27 26 25 24 23 21 20 19 18 18 18 17 17 16 16 16 15 14 13
30 30 30 30 29 28 27 25 24 24 25 25 25 26 27 28 28 26 24 23 23 26 28 27 25 24 22 21 20 19 17 16 16 16 15 15 16 16 16 16 15 14
30 30 31 31 31 29 28 26 25 25 25 25 26 27 28 29 28 26 25 25 26 28 28 26 24 23 21 20 19 17 16 15 15 14 14 14 15 15 15 15 14 14
30 31 31 31 31 30 28 27 26 26 26 26 26 27 29 29 27 26 27 27 28 29 28 25 23 21 20 18 17 16 15 14 13 13 14 14 14 13 13 13 13 13
30 31 31 31 31 30 28 27 27 26 26 26 26 27 29 29 27 26 28 29 29 28 27 24 22 20 18 16 15 14 13 13 12 13 13 13 13 12 12 12 11 12
30 31 31 31 31 30 29 27 26 25 25 26 27 28 30 29 27 27 28 28 28 26 24 23 21 19 17 15 14 13 12 11 11 12 12 12 12 11 11 11 11 11
31 32 32 31 31 30 29 27 26 25 25 26 27 29 30 29 28 28 27 26 25 24 23 21 19 18 16 14 13 12 11 10 10 10 11 11 10 10 10 10 11 11
32 32 32 32 31 29 28 26 25 25 25 26 27 28 29 29 29 28 26 25 23 21 21 20 19 18 16 14 12 11 10 9 9 9 10 10 9 9 9 9 10 10
33 33 32 31 30 28 26 25 24 24 26 27 28 28 29 29 28 27 26 24 22 20 19 19 19 18 16 13 12 10 9 8 8 8 9 9 8 8 8 8 9 9

ECMWFNIL_925_spd_135.txt.gz
Wind_Speed
24 20 14 13 16 22 25 24 25 26 25 25 24 21 18 15 12 10 10 10 11 11 12 12 12 12 12 11 12 14 15 15 16 15 14 14 14 13 12 12 13 13
19 14 12 15 18 22 26 26 26 26 25 24 22 19 16 14 13 12 12 13 13 14 14 13 12 12 11 11 13 16 17 17 16 15 14 15 14 14 15 15 16 16
14 12 13 17 20 23 27 27 26 26 24 22 20 18 17 16 15 15 14 15 15 15 15 13 12 12 12 13 16 18 17 16 16 14 15 16 16 16 17 17 18 18
12 12 15 18 20 23 27 28 28 26 24 22 20 19 18 17 17 16 16 16 16 16 15 14 13 12 12 14 17 18 17 16 15 14 16 17 17 18 18 18 19 19
15 16 17 19 22 24 27 29 29 27 25 23 21 20 19 18 18 18 18 17 16 16 16 15 14 13 13 15 17 17 16 16 15 15 17 17 17 18 18 18 18 18
19 20 21 22 25 28 29 30 30 29 26 24 22 21 20 19 19 19 18 17 17 17 16 16 16 15 15 16 17 17 16 16 15 16 17 17 17 18 18 17 18 19
22 24 25 26 29 32 32 31 30 30 28 25 24 23 21 20 20 19 18 18 18 18 17 16 16 17 16 16 17 17 17 16 16 17 18 17 17 18 18 18 18 19
26 28 29 30 31 32 32 31 30 29 27 25 25 23 21 20 20 19 19 19 19 18 17 17 17 17 17 17 17 17 17 17 17 18 19 19 18 19 19 20 20 20
29 32 33 33 32 33 32 31 29 27 26 25 25 23 21 20 19 19 19 19 19 18 18 18 18 18 17 17 17 17 18 19 19 21 21 20 19 19 19 19 19 19
30 33 34 34 34 33 32 30 28 26 25 24 24 23 21 20 19 18 18 18 19 19 19 18 18 18 17 17 17 18 20 21 21 22 22 21 20 20 18 17 17 16
30 32 33 34 34 33 31 28 27 25 23 23 23 22 22 21 19 18 18 19 20 20 20 19 19 18 17 17 18 20 22 23 22 23 23 22 21 20 18 16 15 14
30 31 32 32 33 32 30 28 26 24 23 23 22 22 22 21 19 19 19 20 21 20 20 19 18 18 18 19 20 22 24 24 23 23 22 22 20 19 17 15 13 13
30 31 31 31 31 30 28 27 25 24 23 22 21 21 21 21 21 21 21 21 21 20 19 18 18 19 20 21 23 24 25 24 23 22 21 20 19 17 16 15 13 12
31 32 31 31 30 28 27 25 24 23 22 22 21 21 21 22 22 23 22 22 21 19 18 18 20 22 23 24 25 25 25 23 22 20 19 19 18 17 16 16 14 13
32 32 32 30 29 27 25 24 23 22 22 21 21 21 22 23 23 23 24 23 20 19 19 21 23 24 25 25 25 25 24 23 21 20 18 18 17 17 16 16 15 14
33 32 32 30 28 27 25 24 23 22 22 21 20 21 23 24 25 25 24 23 21 21 23 25 25 25 24 23 23 24 23 22 21 19 17 16 15 15 14 14 14 14
34 32 31 29 28 27 26 24 23 22 21 21 22 23 25 26 26 25 24 22 22 25 27 27 26 25 23 22 22 22 23 22 20 19 17 15 14 13 13 13 13 15
36 34 32 30 28 27 26 24 22 21 21 23 24 26 27 27 26 25 23 23 25 27 28 28 26 24 23 22 21 21 21 21 20 18 17 16 15 14 13 13 13 15
34 33 33 31 29 28 26 24 22 22 23 25 27 28 28 27 26 24 23 25 28 28 28 28 26 23 22 21 20 20 20 20 19 18 18 17 16 15 14 13 13 13
33 33 32 31 30 29 26 24 23 23 25 27 28 28 28 28 26 24 25 28 29 29 28 27 25 22 21 20 19 18 18 18 18 18 17 17 16 16 15 15 15 14
33 33 32 31 30 29 27 26 25 25 27 28 28 29 29 28 26 26 28 30 30 29 29 27 24 21 19 18 18 17 17 17 17 16 16 16 15 15 15 15 16 15
33 33 32 32 31 29 28 27 27 27 28 28 29 29 29 28 27 28 31 32 31 30 28 26 23 20 18 17 17 16 16 16 15 15 15 15 14 14 14 13 14 14
33 33 33 33 32 30 29 28 27 27 28 29 30 31 30 28 28 30 32 32 31 29 27 26 23 20 18 17 16 15 15 15 14 14 14 14 13 13 13 13 13 13
32 32 33 34 33 31 30 28 28 28 28 30 32 31 30 29 30 31 31 31 30 28 26 25 23 20 17 16 15 14 14 14 13 13 13 13 12 13 13 13 12 12
32 32 34 35 33 31 31 29 29 29 29 31 32 32 30 30 30 30 29 28 28 27 25 24 22 19 17 15 13 12 12 12 11 11 12 11 10 11 12 12 12 11
33 34 35 35 33 32 31 30 30 29 30 32 32 32 31 30 30 30 29 27 27 25 24 22 20 19 17 14 13 11 11 10 10 10 10 10 9 9 9 9 10 10

ECMWFNIL_925_spd_138.txt.gz
Wind_Speed
18 18 19 19 17 18 17 15 15 15 16 21 23 21 21 18 14 11 10 10 9 8 9 10 10 10 10 10 10 10 11 11 10 10 10 11 12 12 12 11 10 10
19 19 20 21 21 19 17 18 20 19 19 23 23 21 20 18 15 13 12 11 9 10 10 11 10 10 11 11 11 11 11 11 10 10 11 12 12 12 12 12 11 10
23 23 23 25 24 20 17 19 21 23 25 25 24 22 20 17 16 15 14 11 10 10 11 11 11 11 11 12 11 11 11 11 11 11 12 12 12 12 12 12 11 10
26 26 27 26 22 20 19 20 24 28 28 27 25 23 20 18 18 17 14 11 10 11 11 12 12 12 13 12 11 11 11 11 11 11 13 13 13 12 12 11 11 11
26 26 27 23 19 18 19 22 28 30 29 27 26 23 20 19 19 17 13 10 10 11 12 13 13 13 13 12 11 11 11 11 11 12 13 13 12 12 12 12 12 12
23 23 23 19 17 18 20 25 30 31 29 28 25 23 21 20 19 16 12 10 11 12 13 14 14 13 13 12 11 11 11 12 12 13 14 14 13 13 12 13 14 13
21 22 20 18 19 19 21 28 32 31 30 28 26 24 22 19 17 15 12 12 12 13 14 14 14 13 12 11 11 12 12 13 13 14 15 15 14 14 13 13 14 14
19 21 20 20 21 20 23 31 33 32 30 28 26 24 20 17 16 15 13 13 13 14 14 14 14 13 12 11 12 13 13 13 14 15 16 15 15 15 14 13 14 14
21 21 20 21 21 22 28 32 33 32 30 28 27 23 19 16 15 15 14 14 14 14 15 14 14 13 12 12 13 14 14 14 15 15 16 16 16 15 14 13 13 13
21 21 22 22 20 22 27 29 30 31 29 27 26 22 19 17 15 14 14 14 15 15 15 15 14 13 13 13 14 14 15 16 16 16 15 16 16 14 13 13 13 12
20 21 23 22 20 23 27 29 31 29 26 26 25 22 20 18 15 13 14 15 16 16 15 15 14 14 14 15 15 15 16 16 16 16 16 16 15 14 14 13 12 12
21 21 22 22 25 29 32 32 31 26 23 24 23 22 21 18 15 14 14 15 15 15 15 15 15 15 15 16 16 16 16 17 17 16 16 16 15 14 13 13 12 12
20 21 20 23 30 36 34 31 28 26 25 21 19 20 19 17 15 15 15 15 15 15 15 15 15 15 16 16 16 16 16 17 16 16 16 15 14 14 13 12 12 12
21 22 21 26 34 36 32 29 27 26 24 20 18 19 18 16 16 16 15 15 15 14 14 15 16 16 16 16 16 17 17 17 16 16 16 16 15 14 13 12 13 13
20 20 22 31 36 34 31 30 27 25 23 20 19 19 17 17 17 16 16 15 14 15 15 15 15 15 15 16 17 17 17 17 16 16 16 16 15 14 13 13 13 13
19 21 26 34 36 33 32 32 29 26 23 20 20 19 18 19 18 17 16 16 15 15 15 14 14 15 17 18 17 17 17 17 16 15 15 15 14 14 13 13 13 14
24 28 32 35 36 35 34 33 31 29 26 22 21 20 19 19 18 17 16 15 16 16 15 14 17 20 22 21 19 18 17 16 16 15 14 14 14 14 13 13 13 12
26 31 33 34 35 35 35 34 31 28 25 22 21 21 21 20 18 17 17 16 17 17 16 18 21 23 23 22 21 19 17 16 15 15 14 14 13 13 13 13 12 11
25 29 32 34 34 34 32 29 26 24 23 22 22 22 21 20 18 18 18 17 18 18 18 20 22 22 21 22 22 19 17 16 15 14 14 14 13 13 13 12 11 10
24 28 31 32 31 29 25 22 21 22 22 22 22 22 22 21 19 18 19 18 18 19 19 20 22 21 20 21 21 20 18 16 15 15 15 14 13 13 12 11 10 9
25 29 31 29 26 23 21 20 20 22 22 22 23 22 22 20 19 19 19 18 19 19 18 19 22 21 19 20 21 20 18 16 15 15 14 14 13 13 12 11 10 9
27 31 29 25 22 21 20 19 20 21 22 22 22 22 21 19 18 18 19 19 19 19 19 20 22 21 18 18 20 20 17 14 14 14 14 13 12 11 11 10 9 9
31 31 25 22 21 20 20 20 21 22 22 21 22 22 20 18 18 18 19 19 19 19 19 20 21 20 18 18 19 18 14 13 13 13 13 12 11 10 9 9 9 9
28 27 23 21 21 20 20 22 22 22 21 21 22 21 20 18 19 19 19 19 19 18 18 19 20 20 18 18 17 15 13 12 12 12 12 11 11 10 10 10 10 11
24 23 22 22 21 20 21 23 22 21 21 21 20 19 19 18 19 19 19 18 18 18 18 18 19 19 18 17 16 15 13 11 11 12 11 11 10 10 10 10 10 10
23 23 22 21 21 21 20 20 21 21 22 22 19 18 18 18 18 19 19 18 18 18 17 16 17 18 18 17 15 14 12 10 10 11 11 10 10 10 10 9 9 8

ECMWFNIL_925_spd_141.txt.gz
Wind_Speed
19 19 18 18 18 17 18 18 16 14 14 14 13 13 13 13 12 11 12 12 11 9 8 8 8 7 8 8 8 9 9 9 9 9 9 9 9 9 10 9 9 8
20 18 17 19 20 20 20 19 16 17 18 16 15 17 17 15 14 13 12 12 11 10 9 9 8 8 8 9 9 9 9 10 9 9 9 9 10 10 10 10 9 9
19 17 17 19 21 20 19 18 17 19 20 18 17 19 19 16 15 14 13 12 11 10 9 9 9 9 9 9 9 9 10 10 9 9 9 9 9 9 9 9 9 9
19 18 17 20 21 19 18 18 19 20 20 20 19 19 18 17 17 15 13 12 11 10 10 10 10 10 10 9 9 10 10 10 9 9 10 10 9 10 9 9 10 10
20 18 17 20 22 20 18 17 19 20 20 21 21 19 19 19 18 15 13 12 11 11 11 11 11 10 10 10 10 10 10 10 9 9 10 10 9 10 9 10 10 10
21 19 18 21 22 21 20 17 18 21 22 23 22 20 20 19 17 15 13 12 12 12 12 12 11 10 10 9 10 10 10 10 10 10 11 11 10 10 10 10 10 10
22 21 19 19 20 21 21 18 18 23 24 24 23 22 21 18 16 15 13 13 13 13 13 13 12 10 10 9 10 11 10 10 11 11 11 11 11 11 11 11 11 11
23 21 19 19 18 18 17 16 19 24 25 24 23 23 20 15 14 14 13 13 14 14 14 13 12 11 10 10 11 12 11 11 11 11 12 12 12 12 11 11 11 11
22 21 20 20 18 16 14 15 21 25 24 24 24 21 17 14 14 14 13 14 15 15 14 13 12 11 10 11 12 12 12 12 12 12 12 12 12 12 11 11 11 11
21 21 21 20 19 19 19 20 25 26 24 24 23 19 17 15 15 14 14 15 15 15 14 13 12 11 11 12 12 12 13 13 13 13 12 12 12 12 11 11 10 11
21 21 22 22 21 22 23 25 28 28 26 24 22 19 18 16 15 15 15 15 15 15 14 13 12 12 12 13 13 13 13 13 13 13 13 13 12 12 11 11 11 11
22 23 24 23 21 24 27 29 29 30 28 24 20 19 19 17 16 15 15 15 15 15 14 13 12 13 13 13 13 13 13 13 13 13 13 13 12 12 11 11 11 12
21 22 23 21 21 25 28 28 28 30 28 24 21 20 18 17 16 15 16 16 15 15 14 13 13 13 14 13 14 14 13 14 14 14 13 13 12 12 12 12 12 12
21 22 21 20 20 23 24 26 27 27 25 23 21 19 17 16 16 16 17 16 16 15 14 14 14 14 14 14 14 14 14 14 14 14 14 13 13 13 13 13 14 14
26 23 19 20 23 24 23 25 26 24 22 22 20 17 16 16 16 17 17 17 16 15 14 15 15 14 14 14 14 14 14 14 14 14 14 14 14 14 14 14 15 16
25 21 21 24 26 26 25 25 25 23 22 21 18 16 16 17 17 17 18 18 16 16 16 15 13 14 16 16 15 15 15 15 14 14 13 14 14 14 14 14 15 16
23 22 24 26 26 25 25 26 26 24 22 20 18 16 16 17 18 18 18 17 16 16 16 13 13 17 19 18 17 16 15 15 15 14 13 13 14 14 14 14 13 12
23 23 25 25 25 25 25 25 25 23 22 20 19 18 18 18 18 18 18 17 16 16 14 14 17 21 21 19 19 17 15 15 14 14 13 13 13 13 13 11 10 9
23 25 25 24 25 25 24 24 24 23 22 20 18 19 19 19 18 18 17 16 16 15 14 16 21 23 22 21 20 18 16 15 13 13 13 13 13 12 11 10 10 9
23 24 23 23 25 26 26 24 23 22 21 19 19 19 19 19 18 18 17 16 16 16 16 19 23 24 23 22 20 18 16 15 14 13 13 13 12 12 11 10 10 9
24 25 24 24 26 26 25 22 21 22 21 19 20 19 19 19 18 17 17 17 17 17 18 19 23 25 24 22 20 18 16 15 14 14 13 13 12 11 10 10 9 9
26 29 27 26 25 24 23 22 22 22 21 20 20 19 19 19 17 17 18 18 18 18 18 20 24 26 23 22 21 19 16 15 14 13 13 13 12 11 11 10 9 9
28 32 29 26 25 23 22 22 20 20 20 21 20 20 20 18 17 17 18 18 19 19 19 21 24 25 24 23 23 19 15 13 13 13 13 12 12 11 10 10 10 10
29 33 29 26 24 23 22 21 21 21 21 21 21 21 20 18 17 18 18 18 19 19 20 21 22 24 26 24 21 18 14 13 12 13 13 12 11 10 9 10 11 12
28 29 27 25 24 22 22 22 22 22 22 21 21 20 19 18 18 18 18 18 18 19 20 19 21 25 26 22 20 18 13 10 11 13 12 12 11 11 10 10 11 12
27 27 26 25 24 22 22 22 22 22 22 21 21 20 19 18 18 18 19 18 18 19 19 18 20 24 25 22 20 17 9 6 10 13 13 12 12 12 11 11 10 10

ECMWFNIL_925_spd_144.txt.gz
Wind_Speed
21 22 22 22 22 23 23 22 21 20 18 17 17 17 16 15 15 15 16 16 15 15 14 13 13 12 12 12 11 11 12 12 12 12 13 14 14 14 14 14 14 14
23 23 23 23 23 23 23 22 19 19 19 19 19 19 18 16 15 16 16 16 15 15 15 14 13 12 12 11 11 12 12 12 12 12 13 14 14 14 14 14 14 14
23 23 23 23 23 23 22 21 18 19 20 20 21 22 21 18 16 16 15 15 15 15 15 14 12 12 12 11 12 13 12 13 13 12 13 13 12 13 14 14 14 15
23 23 22 22 23 23 23 21 19 21 22 21 21 21 20 19 17 16 14 15 16 15 15 13 12 13 12 11 12 13 13 13 12 12 13 13 13 13 14 14 15 15
22 23 22 22 23 24 25 24 23 23 22 22 22 22 22 21 18 16 15 15 16 15 14 13 13 13 12 11 13 13 13 13 12 12 13 13 12 13 13 14 14 14
23 22 23 23 24 26 26 25 25 25 23 23 25 25 24 22 17 15 16 15 15 15 14 14 13 12 11 11 12 12 12 12 12 12 13 13 12 12 12 13 13 13
25 24 24 23 24 24 24 25 26 25 24 24 26 24 22 19 16 16 15 14 15 15 14 13 13 11 10 10 12 12 12 12 12 12 13 13 13 13 13 13 13 14
25 24 24 23 23 22 24 26 25 25 25 25 25 24 22 19 18 17 15 14 15 14 13 13 12 10 10 11 12 13 13 13 12 13 13 13 13 13 13 13 13 14
25 24 24 24 23 23 24 25 25 25 26 25 26 25 22 20 18 18 16 15 14 13 13 12 12 11 10 12 13 13 13 14 13 14 14 13 13 13 12 13 13 13
26 25 25 25 24 23 23 22 24 27 26 26 27 24 21 20 19 18 17 16 15 13 13 13 12 11 11 12 13 13 14 15 14 14 13 13 13 13 12 12 13 13
27 26 26 26 25 23 21 21 25 28 26 27 27 24 21 21 20 18 17 16 15 14 13 13 12 11 12 13 14 15 15 15 15 14 14 14 13 13 13 12 12 12
27 27 27 26 24 22 21 22 26 28 27 28 28 24 21 20 19 18 17 16 15 14 13 13 12 12 13 14 15 16 16 16 15 15 15 14 14 13 13 12 12 12
27 27 26 24 22 21 20 22 26 28 29 29 27 24 21 20 19 17 17 16 15 15 14 13 13 14 15 15 16 16 16 17 17 16 16 15 14 14 13 12 12 11
26 25 24 22 21 21 20 21 25 28 29 28 27 25 22 19 18 16 16 17 16 16 15 14 13 15 16 16 16 16 17 17 17 17 17 16 15 14 13 12 11 11
25 25 23 22 22 21 21 24 27 28 29 28 27 26 21 18 17 17 17 17 17 17 15 14 14 15 16 16 17 18 18 17 17 17 17 17 17 15 14 14 15 16
24 24 21 22 23 21 22 27 28 28 28 27 26 24 19 17 18 18 18 17 17 18 16 14 15 16 16 17 18 18 18 18 17 17 17 17 18 18 19 20 20 20
23 23 21 22 23 22 23 28 29 27 26 27 25 21 17 18 19 19 18 17 17 18 16 14 16 17 18 19 18 18 18 18 18 18 17 17 18 20 22 22 21 21
23 23 22 23 23 23 24 28 27 24 25 27 23 18 18 20 19 19 19 18 19 17 15 15 17 19 20 20 19 18 18 18 18 18 18 18 19 20 20 19 19 18
22 23 23 23 23 23 26 27 25 23 25 26 21 18 21 22 21 20 19 19 20 16 14 17 20 21 21 21 20 19 18 17 17 17 18 18 19 18 16 14 13 11
23 22 22 22 23 25 28 27 25 23 24 23 20 21 24 22 21 20 19 19 19 15 16 21 22 22 23 22 21 19 17 17 17 17 17 17 16 15 14 12 11 10
23 23 23 23 24 27 27 25 24 23 23 22 22 23 23 21 20 20 18 19 18 16 19 23 23 24 24 23 21 19 17 17 17 17 17 16 15 14 13 12 12 10
23 24 24 24 26 26 25 24 23 23 23 23 23 22 20 20 20 19 17 18 18 18 22 25 25 26 26 23 21 18 17 17 17 17 17 16 15 14 13 12 11 10
24 25 26 26 27 27 25 24 24 24 24 25 24 22 20 20 20 18 16 18 19 21 24 26 27 27 26 24 21 18 17 17 16 16 16 15 15 14 13 13 12 10
26 27 28 29 28 28 28 27 26 25 26 25 23 22 21 20 19 18 17 18 20 22 26 29 30 28 27 25 22 20 18 17 16 16 16 16 15 12 12 14 13 12
27 29 31 31 30 30 31 30 28 27 25 23 22 22 20 19 18 18 17 18 20 23 28 31 31 29 28 26 22 20 19 17 16 17 17 16 15 12 12 13 13 12
28 30 31 31 32 33 32 30 28 26 24 23 22 21 20 18 18 18 18 18 20 24 27 29 31 31 29 26 22 20 17 15 15 18 17 16 14 13 13 14 14 13

ECMWFNIL_925_spd_150.txt.gz
Wind_Speed
31 31 30 30 30 29 30 29 28 27 27 26 26 26 26 24 23 23 23 23 24 22 21 19 17 16 14 13 12 11 11 12 14 14 14 15 15 15 15 15 15 15
29 30 30 29 29 28 29 28 27 27 27 27 27 26 25 23 23 23 21 22 23 22 20 18 16 15 13 13 12 11 12 13 15 15 15 15 15 15 15 16 16 16
28 28 29 29 29 28 28 27 27 28 28 27 27 27 26 24 23 22 20 21 23 21 19 17 16 14 12 12 11 11 13 15 16 15 15 15 15 15 16 17 17 17
27 26 28 28 28 28 27 27 28 28 28 28 28 28 27 24 22 22 21 22 22 21 19 17 15 14 12 12 12 13 15 16 16 15 16 16 15 16 17 17 18 18
26 25 26 27 27 27 27 27 28 28 29 28 28 28 27 24 22 24 24 23 21 20 19 17 15 14 14 14 13 15 17 17 16 16 17 17 16 17 17 18 19 19
26 25 26 26 26 26 27 27 28 28 29 28 28 28 26 24 25 26 26 24 21 20 19 18 16 16 15 14 14 16 18 19 18 17 18 19 19 19 19 19 20 19
27 26 26 26 26 26 27 27 28 28 29 28 28 28 26 25 26 26 24 22 20 19 19 18 17 17 15 16 17 18 18 19 19 19 20 21 21 21 20 20 20 20
28 27 26 26 26 26 27 28 28 28 29 29 29 28 27 26 26 24 21 20 19 19 19 19 18 18 17 18 20 20 20 20 20 21 22 22 22 21 20 20 21 21
28 27 26 26 27 27 27 28 29 29 29 30 29 28 27 26 25 23 20 20 21 21 20 19 18 18 18 20 20 20 21 21 21 22 22 22 21 20 20 21 21 21
28 27 28 28 28 28 28 29 30 30 30 30 30 28 27 26 24 22 22 23 23 22 20 19 18 19 19 19 19 20 22 22 22 22 22 21 21 21 21 21 22 22
28 28 29 28 28 28 29 30 30 30 30 29 29 29 28 25 24 24 25 25 24 23 21 19 18 19 20 20 20 20 22 23 22 22 22 21 21 20 21 21 22 22
29 29 30 29 29 29 30 31 31 31 30 29 29 29 27 25 25 26 26 25 24 22 20 18 18 20 20 20 21 22 22 23 23 22 22 22 21 20 20 21 21 21
30 30 30 29 29 30 31 31 31 31 30 29 29 28 27 27 27 27 26 25 24 22 19 19 20 21 21 21 22 22 23 23 23 23 22 21 21 21 20 20 20 20
31 30 30 30 30 31 31 31 31 30 30 29 28 28 27 27 27 27 26 25 24 22 21 20 21 21 21 23 23 23 23 24 23 23 23 22 21 21 20 19 19 19
30 30 30 31 31 31 31 30 31 30 29 29 29 28 27 26 27 26 25 25 25 24 22 22 22 22 22 23 24 24 24 24 24 24 24 23 22 21 20 19 18 18
31 30 31 31 32 32 31 31 30 30 29 29 29 29 27 27 27 25 24 26 27 25 23 23 22 22 23 24 24 25 25 25 24 24 23 23 22 21 20 19 18 18
31 31 32 32 32 32 31 30 30 29 29 29 30 29 28 28 28 25 25 28 28 26 24 23 23 23 23 24 25 25 25 25 24 23 22 22 21 20 20 20 19 19
32 32 31 31 32 31 31 30 28 29 29 30 30 29 29 29 28 27 28 29 28 26 24 24 23 24 24 25 26 25 25 24 23 23 22 20 20 20 21 21 21 20
32 32 31 30 31 31 30 29 28 29 30 30 30 30 30 30 29 29 30 30 28 26 25 24 24 25 26 26 26 25 24 23 23 21 20 20 21 23 24 24 24 24
32 31 31 30 30 30 30 29 29 29 30 31 31 30 30 30 30 31 32 31 29 27 26 26 26 27 27 27 26 25 24 23 22 20 19 21 24 26 27 28 28 28
31 31 31 30 30 30 30 29 29 30 30 30 31 31 31 31 32 33 33 32 30 28 27 27 28 28 27 26 26 25 23 22 21 19 20 24 28 29 29 28 28 27
32 31 31 31 31 30 29 29 29 30 30 29 30 30 30 31 33 34 34 32 30 28 28 28 28 28 27 26 26 25 23 22 20 19 22 28 31 30 28 26 25 25
32 32 31 31 31 30 29 29 29 30 29 29 30 30 30 32 34 34 34 32 31 29 29 29 30 29 27 26 26 25 24 22 21 22 26 31 31 28 24 22 22 22
32 32 31 31 30 30 29 29 29 29 29 29 30 31 31 33 34 34 33 32 31 30 29 29 31 30 28 27 26 26 24 23 23 25 30 31 29 25 21 20 20 19
31 32 31 30 30 30 30 30 29 30 29 29 30 32 32 33 34 34 33 32 30 29 29 29 31 31 29 28 27 27 25 23 25 29 31 30 27 23 21 19 19 17
30 31 31 30 29 29 30 31 30 30 30 29 30 32 33 33 34 34 33 31 29 28 29 30 31 31 30 29 28 28 26 25 28 31 31 29 27 25 24 22 20 18